Simultaneous Nadir Overpasses (SNOs) Predictions

Prediction of SNOs between METOP-A and NOAA-19 Satellite Orbit:

Table of predicted SNOs for the next 14.0 days since TLE Epoch: 4/3/2020
Index Date (METOP-A) Time (METOP-A) Lat,Lon (METOP-A) SZA (METOP-A ) Date (NOAA-19) Time (NOAA-19) Lat,Lon (NOAA-19) SZA (NOAA-19 ) Distance(km) Time Diff (sec)
1 04/08/2020 06:22:27 80.42, 98.02 73.23 04/08/2020 06:21:17 80.40, 98.17 73.21 3.46 70
2 04/08/2020 07:13:08 -80.43, -94.61 106.78 04/08/2020 07:12:18 -80.41, -94.67 106.81 2.23 50
3 04/08/2020 08:03:49 80.41, 72.55 73.19 04/08/2020 08:03:18 80.41, 72.56 73.19 0.16 31
4 04/08/2020 08:54:30 -80.42,-120.08 106.82 04/08/2020 08:54:18 -80.40,-119.96 106.84 2.93 12
5 04/08/2020 09:45:11 80.40, 47.08 73.15 04/08/2020 09:45:19 80.42, 46.94 73.16 3.15 8
6 04/08/2020 10:35:52 -80.40,-145.55 106.86 04/08/2020 10:36:19 -80.40,-145.58 106.86 0.58 27
7 04/08/2020 11:26:33 80.39, 21.61 73.11 04/08/2020 11:27:19 80.41, 21.66 73.13 2.03 46




NCC Satellite Simultaneous Nadir Overpasses (SNOs) Prediction Service
